Powrót do katalogu

STARLINK-2563

AktywnyŁącznośćVLEO
NORAD 48410·PAYLOAD·🇺🇸 United States

Wystrzelony May 4, 2021 z Cape Canaveral Space Force Station

Loading…

Następne Przeloty (najbliższe 24 godziny)

TLE

ŚwieżeSource: CelesTrak SupGP

Epoka: Sep 14, 2026, 20:41 UTC

1 48410C 21038BK  26257.86229167 -.00026022  00000+0 -83681-3 0  2573
2 48410  53.1578 136.2119 0001240  85.7524 248.3171 15.31714888    12

Śledź STARLINK-2563 w czasie rzeczywistym z AllMySat

Download on the App Store